Location: Jefferson Observatory
(34.1602°N, 83.6058°W)
Time: 18:05:09
(UTC-05:00)

N. Korean satellite - Visible Passes

Search period start: 25 February 2018 00:00
Search period end: 07 March 2018 00:00
Orbit: 459 x 514 km, 97.2° (Epoch: 24 February)

Date Brightness Start Highest point End Pass type
(mag) Time Alt. Az. Time Alt. Az. Time Alt. Az.
25 Feb 9.1 06:39:02 10° NE 06:42:19 30° E 06:45:38 10° SSE visible
26 Feb 10.2 06:16:19 10° ENE 06:18:29 15° E 06:20:39 10° SE visible
27 Feb 10.2 19:32:29 10° WSW 19:34:05 13° W 19:35:43 10° WNW visible
28 Feb 9.1 19:07:14 10° SSW 19:10:12 27° W 19:13:13 10° NW visible
02 Mar 10.3 06:14:51 10° ENE 06:16:56 14° E 06:19:01 10° SE visible
03 Mar 10.1 19:30:42 10° SW 19:32:30 13° W 19:34:18 10° WNW visible
04 Mar 9.0 19:05:33 10° SSW 19:08:35 28° W 19:11:41 10° NW visible
06 Mar 10.3 06:13:21 10° ENE 06:15:20 14° E 06:17:19 10° SE visible
